Location: Dal�� Lhota
(48.7500°N, 14.0167°E)
Time: 07:02:13
(UTC+00:00)

Transit 2A - Pass Details

Date: 30 July 2021
Orbit: 594 x 964 km, 66.7° (Epoch: 24 September)

Event Time Altitude Azimuth Distance (km) Brightness Sun altitude
Rises 11:36:52 0° 325° (NW) 3,097 8.9 59.2°
Reaches altitude 10° 11:40:07 10° 348° (NNW) 2,252 8.3 59.0°
Maximum altitude 11:43:11 16° 25° (NNE) 1,962 8.0 58.9°
Drops below altitude 10° 11:46:25 10° 61° (ENE) 2,399 8.5 58.8°
Sets 11:50:02 0° 83° (E) 3,413 9.2 58.6°
